CAA2984 TNCA-MDPC

Flight info

Callsign CAA2984
Flight time N/A
Altitude 31000
Route WALLP1F WALLP DCT POKAK POKAK2B
Aircraft B734/M-SDE2E3FHIRW/S

Departure

Time 2026-04-28 13:35
Airport Queen Beatrix International Airport (TNCA)

Arrival

Time N/A
Airport Punta Cana International Airport (MDPC)
Time Latitude Longitude Altitude Speed Heading
2026-04-28 13:23 12.50307 -70.00872 71 ft 0 kts 15°
2026-04-28 13:28 12.50300 -70.00874 71 ft 2 kts 12°
2026-04-28 13:29 12.50282 -70.00876 71 ft 3 kts 359°
2026-04-28 13:29 12.50263 -70.00873 71 ft 3 kts 343°
2026-04-28 13:29 12.50244 -70.00865 71 ft 3 kts 329°
2026-04-28 13:29 12.50228 -70.00853 71 ft 2 kts 315°
2026-04-28 13:30 12.50227 -70.00852 71 ft 0 kts 315°
2026-04-28 13:30 12.50228 -70.00852 71 ft 0 kts 315°
2026-04-28 13:30 12.50235 -70.00872 71 ft 10 kts 273°
2026-04-28 13:31 12.50250 -70.01093 71 ft 20 kts 261°
2026-04-28 13:31 12.50251 -70.01232 71 ft 26 kts 285°
2026-04-28 13:31 12.50292 -70.01404 71 ft 23 kts 284°
2026-04-28 13:32 12.50326 -70.01546 71 ft 18 kts 284°
2026-04-28 13:32 12.50352 -70.01658 71 ft 17 kts 282°
2026-04-28 13:32 12.50391 -70.01818 71 ft 27 kts 284°
2026-04-28 13:32 12.50435 -70.02002 71 ft 27 kts 281°
2026-04-28 13:33 12.50481 -70.02205 71 ft 29 kts 284°
2026-04-28 13:33 12.50529 -70.02410 71 ft 31 kts 283°
2026-04-28 13:33 12.50568 -70.02579 71 ft 17 kts 283°
2026-04-28 13:33 12.50566 -70.02721 71 ft 16 kts 234°
2026-04-28 13:34 12.50529 -70.02752 71 ft 0 kts 210°
2026-04-28 13:34 12.50455 -70.02769 71 ft 18 kts 165°
2026-04-28 13:34 12.50426 -70.02734 71 ft 2 kts 102°
2026-04-28 13:35 12.50364 -70.02470 71 ft 91 kts 104°
2026-04-28 13:35 12.50125 -70.01494 250 ft 179 kts 104°
2026-04-28 13:35 12.49800 -70.00251 968 ft 174 kts 103°
2026-04-28 13:35 12.49521 -69.99045 1587 ft 180 kts 103°
2026-04-28 13:36 12.49230 -69.97756 2232 ft 188 kts 103°
2026-04-28 13:36 12.48958 -69.96455 2858 ft 191 kts 98°
2026-04-28 13:36 12.49134 -69.95086 3477 ft 205 kts 74°
2026-04-28 13:36 12.49961 -69.93773 4123 ft 235 kts 52°
2026-04-28 13:37 12.51348 -69.92777 4760 ft 254 kts 31°
2026-04-28 13:37 12.53087 -69.92248 5409 ft 265 kts 16°
2026-04-28 13:37 12.54932 -69.91932 6040 ft 271 kts 12°
2026-04-28 13:37 12.56817 -69.91635 6671 ft 276 kts 13°
2026-04-28 13:38 12.58694 -69.91293 7291 ft 279 kts 14°
2026-04-28 13:38 12.60606 -69.90881 7919 ft 282 kts 17°
2026-04-28 13:38 12.62519 -69.90409 8546 ft 285 kts 18°
2026-04-28 13:38 12.64444 -69.89884 9175 ft 287 kts 19°
2026-04-28 13:39 12.66376 -69.89320 9803 ft 290 kts 20°
2026-04-28 13:39 12.68320 -69.88726 10431 ft 292 kts 20°
2026-04-28 13:39 12.70308 -69.88096 11071 ft 310 kts 20°
2026-04-28 13:39 12.72422 -69.87410 11711 ft 326 kts 20°
2026-04-28 13:40 12.74631 -69.86684 12347 ft 341 kts 20°
2026-04-28 13:40 12.76932 -69.85924 12982 ft 354 kts 20°
2026-04-28 13:40 12.79317 -69.85133 13615 ft 366 kts 19°
2026-04-28 13:40 12.81744 -69.84327 14240 ft 376 kts 19°
2026-04-28 13:41 12.84297 -69.83479 14879 ft 385 kts 19°
2026-04-28 13:41 12.86836 -69.82634 15499 ft 393 kts 19°
2026-04-28 13:41 12.89464 -69.81760 16129 ft 400 kts 19°
2026-04-28 13:41 12.92135 -69.80871 16760 ft 405 kts 19°
2026-04-28 13:42 12.94826 -69.79939 17389 ft 409 kts 20°
2026-04-28 13:42 12.97521 -69.78949 18017 ft 413 kts 20°
2026-04-28 13:42 13.00228 -69.77918 18644 ft 416 kts 21°
2026-04-28 13:42 13.02940 -69.76863 19270 ft 418 kts 21°
2026-04-28 13:43 13.05663 -69.75790 19896 ft 420 kts 21°
2026-04-28 13:43 13.08389 -69.74708 20520 ft 421 kts 21°
2026-04-28 13:43 13.11129 -69.73615 21147 ft 422 kts 21°
2026-04-28 13:43 13.13871 -69.72520 21770 ft 423 kts 21°
2026-04-28 13:44 13.16612 -69.71423 22395 ft 423 kts 21°
2026-04-28 13:44 13.19355 -69.70325 23019 ft 423 kts 21°
2026-04-28 13:44 13.22104 -69.69225 23645 ft 423 kts 21°
2026-04-28 13:44 13.24844 -69.68128 24269 ft 422 kts 21°
2026-04-28 13:45 13.27577 -69.67033 24890 ft 422 kts 21°
2026-04-28 13:45 13.30280 -69.65950 25428 ft 423 kts 21°
2026-04-28 13:45 13.33038 -69.64846 25938 ft 426 kts 21°
2026-04-28 13:45 13.35806 -69.63737 26441 ft 427 kts 21°
2026-04-28 13:46 13.38582 -69.62625 26942 ft 429 kts 20°
2026-04-28 13:46 13.41372 -69.61508 27443 ft 430 kts 20°
2026-04-28 13:46 13.44166 -69.60388 27943 ft 431 kts 20°
2026-04-28 13:46 13.46965 -69.59267 28443 ft 432 kts 20°
2026-04-28 13:47 13.49772 -69.58142 28944 ft 433 kts 20°
2026-04-28 13:47 13.52580 -69.57016 29444 ft 433 kts 20°
2026-04-28 13:47 13.55394 -69.55889 29945 ft 433 kts 20°
2026-04-28 13:47 13.58197 -69.54764 30445 ft 433 kts 20°
2026-04-28 13:48 13.60976 -69.53650 30814 ft 436 kts 20°
2026-04-28 13:48 13.63833 -69.52505 30962 ft 445 kts 20°
2026-04-28 13:48 13.69733 -69.50143 31006 ft 462 kts 20°
2026-04-28 13:49 13.75784 -69.47717 31004 ft 468 kts 20°
2026-04-28 13:49 13.81871 -69.45273 31005 ft 472 kts 20°
2026-04-28 13:50 13.87188 -69.43140 31006 ft 481 kts 20°
2026-04-28 13:50 13.93471 -69.40616 31007 ft 487 kts 20°
2026-04-28 13:51 13.99808 -69.38067 31008 ft 490 kts 20°
2026-04-28 13:51 14.06172 -69.35502 31009 ft 491 kts 20°
2026-04-28 13:52 14.12514 -69.32946 31011 ft 492 kts 20°
2026-04-28 13:52 14.18894 -69.30373 31012 ft 493 kts 20°
2026-04-28 13:53 14.25280 -69.27796 31014 ft 493 kts 20°
2026-04-28 13:53 14.31680 -69.25212 31015 ft 493 kts 20°
2026-04-28 13:54 14.38077 -69.22628 31017 ft 494 kts 20°
2026-04-28 13:54 14.44481 -69.20040 31019 ft 494 kts 20°
2026-04-28 13:55 14.50888 -69.17449 31021 ft 494 kts 20°
2026-04-28 13:55 14.57294 -69.14857 31023 ft 494 kts 20°
2026-04-28 13:56 14.63661 -69.12280 31025 ft 495 kts 20°
2026-04-28 13:56 14.70070 -69.09683 31027 ft 495 kts 20°
2026-04-28 13:57 14.76485 -69.07083 31029 ft 495 kts 20°
2026-04-28 13:57 14.82910 -69.04477 31031 ft 495 kts 20°
2026-04-28 13:58 14.89328 -69.01872 31034 ft 495 kts 20°
2026-04-28 13:58 14.95662 -68.99299 31036 ft 496 kts 20°
2026-04-28 13:59 14.96977 -68.98765 31036 ft 496 kts 20°